Location: Home
(42.5358°N, 72.7383°W)
Time: 12:37:50
(UTC-05:00)

FENGYUN 1C DEB - Pass Details

Date: 29 November 2022
Orbit: 664 x 840 km, 99.1° (Epoch: 26 January)

Event Time Altitude Azimuth Distance (km) Brightness Sun altitude
Exits shadow 18:58:07 11° 359° (N) 2,402 ? -28.7°
Drops below altitude 10° 18:58:15 10° 358° (N) 2,456 ? -28.7°
Sets 19:00:41 0° 352° (N) 3,382 ? -29.1°
